Location: Unspecified
(35.7250°N, 0.0000°E)
Time: 13:40:30
(UTC+00:00)

Explorer 7 - Pass Details

Date: 21 August 2020
Orbit: 485 x 679 km, 50.3° (Epoch: 21 September)

Event Time Altitude Azimuth Distance (km) Brightness Sun altitude
Rises 19:34:09 0° 317° (NW) 2,682 11.7 -10.9°
Reaches altitude 10° 19:37:28 10° 345° (NNW) 1,748 9.9 -11.5°
Maximum altitude 19:39:25 13° 15° (NNE) 1,528 9.2 -11.9°
Drops below altitude 10° 19:41:21 10° 45° (NE) 1,706 9.1 -12.2°
Enters shadow 19:42:37 - 60° (ENE) 1,995 9.3 -12.5°
